Temperature
14 14 14 14 14 14 14 15 15 15 15 15 15 15 15 15 15 15 15 14 15 15 14 14 14 14 15 14 14 14 14 14 15 15 15 15 15 15 14 15 15 14 14
14 14 14 14 14 14 14 14 14 14 15 15 15 14 14 15 15 15 15 14 14 14 14 14 14 14 14 14 14 14 14 14 14 14 14 14 14 14 14 14 14 14 14
14 14 14 14 14 14 14 14 14 14 14 14 14 14 14 14 14 14 14 14 14 14 14 14 14 14 14 14 14 14 14 14 14 14 14 14 14 14 14 14 14 14 14
14 14 14 14 14 14 14 14 14 14 14 14 14 14 14 14 14 14 14 14 14 14 14 14 14 14 14 14 14 14 14 14 14 14 14 14 14 14 14 14 14 14 14
13 13 14 14 14 14 14 14 14 14 14 14 14 14 14 14 14 14 14 14 14 14 14 14 14 14 14 14 14 14 14 14 14 14 14 14 13 13 13 13 13 13 14
13 13 13 13 14 14 14 14 14 14 14 14 14 14 14 14 14 14 14 14 14 14 14 14 14 14 13 13 13 13 13 13 13 13 13 13 13 13 13 13 13 13 13
13 13 13 13 13 14 14 14 14 14 14 14 14 13 13 13 13 13 13 13 13 13 13 13 13 13 13 13 13 13 13 13 13 13 13 13 13 13 13 13 13 13 13
13 13 13 13 13 13 13 13 13 13 13 13 13 13 13 13 13 13 13 13 13 13 13 13 13 13 13 13 13 13 13 13 13 13 13 13 12 13 13 13 13 13 13
13 13 13 13 13 13 13 13 13 13 13 13 13 13 13 13 13 13 13 13 13 13 13 13 12 12 12 13 13 13 12 12 12 12 12 12 12 12 12 12 13 13 13
13 13 13 13 13 13 13 13 13 13 13 13 13 13 13 13 13 13 13 13 12 12 12 12 12 12 12 12 12 12 12 12 12 12 12 12 12 12 12 12 12 12 12
12 12 12 12 12 12 12 12 13 13 13 13 13 12 13 13 12 12 12 12 12 12 12 12 12 12 12 12 12 12 12 12 12 12 12 12 12 12 12 12 12 12 12
12 12 12 12 12 12 12 12 12 12 12 12 12 12 12 12 12 12 12 12 12 12 12 11 11 11 11 11 11 11 11 11 11 11 11 12 12 12 12 12 12 12 12
12 12 11 11 11 11 11 12 11 12 12 12 12 12 12 12 12 12 11 11 11 11 11 11 11 11 11 11 11 11 11 11 11 11 11 11 11 11 11 11 11 11 11
11 11 11 11 11 11 11 11 11 11 11 11 11 11 11 11 11 11 11 11 11 11 11 11 10 10 11 11 11 11 10 10 11 11 10 11 11 11 11 11 11 11 11
11 11 10 10 10 10 10 11 11 11 11 11 11 11 11 11 11 11 11 11 11 10 10 10 10 10 10 10 10 10 10 10 10 10 10 10 10 10 10 11 11 11 10
10 10 10 10 10 10 10 10 10 10 10 10 10 10 10 11 11 10 10 10 10 10 10 10 10 10 10 10 10 10 10 9 9 10 10 10 10 10 10 10 10 10 10
10 10 10 10 10 10 10 10 10 10 10 10 10 10 10 10 10 10 10 10 10 10 10 9 9 9 9 9 9 9 9 9 9 9 9 9 9 9 10 10 10 10 10
10 10 10 10 10 9 9 9 9 9 9 9 9 9 10 10 10 10 9 9 9 9 9 9 9 9 9 9 9 9 8 9 9 9 9 9 9 9 9 9 9 9 9
9 9 9 9 9 9 9 9 9 9 9 9 9 9 9 9 9 9 9 9 9 9 9 9 9 8 8 8 8 8 8 8 8 8 8 9 9 9 9 9 9 9 9
9 9 9 9 9 9 9 8 8 8 8 8 8 8 9 9 9 8 8 8 8 8 8 8 8 8 8 8 7 7 8 8 8 8 8 8 8 8 8 8 8 8 8
8 8 8 8 8 8 8 8 8 8 8 8 8 8 8 8 8 8 8 8 8 8 8 8 8 7 7 7 7 7 7 7 7 7 7 8 8 8 8 8 8 8 8
8 8 8 8 8 8 8 7 7 7 7 7 7 7 7 7 7 7 7 7 7 7 7 7 7 7 7 6 6 6 6 6 7 7 7 7 7 7 7 7 8 8 8
7 7 7 7 7 7 7 7 7 7 7 7 7 7 7 7 7 7 7 7 7 7 7 7 7 7 6 6 6 6 6 6 6 6 7 7 7 7 7 7 7 7 7
7 7 7 7 7 7 6 6 6 6 6 6 6 6 6 6 6 6 6 6 6 6 6 6 6 6 6 6 6 6 6 6 6 5 6 6 6 6 7 7 7 7 7
7 6 6 6 6 6 6 6 6 6 6 6 6 6 6 6 6 6 6 6 6 6 6 6 5 5 6 6 5 5 5 5 5 5 5 6 6 6 6 6 6 6 6
6 6 6 6 6 5 5 5 5 5 5 5 5 5 5 5 5 5 5 5 5 5 5 5 5 5 5 5 5 5 5 5 5 5 5 5 5 6 6 6 6 6 6
Wind_Speed
1 2 4 6 7 8 9 9 10 10 11 11 11 12 12 12 12 12 12 13 13 14 15 15 15 15 16 17 17 17 18 18 18 18 18 18 18 19 18 18 18 17 19
4 5 6 6 7 8 9 9 10 10 10 10 11 11 11 11 11 11 12 12 13 14 14 14 14 15 16 17 17 17 17 17 17 18 17 17 18 18 18 18 17 16 19
6 6 6 7 8 9 9 9 10 9 9 10 10 11 11 11 11 11 12 12 12 13 13 13 14 14 15 16 17 17 17 17 16 16 16 14 16 17 17 17 17 18 18
7 7 6 7 8 9 9 9 9 9 9 9 10 10 10 10 11 11 11 12 12 12 12 12 13 13 14 15 16 16 16 16 15 14 13 12 14 16 16 16 16 17 17
7 8 7 8 8 9 9 9 9 9 9 9 9 9 10 10 10 11 11 11 12 12 11 11 12 12 13 14 15 15 15 15 14 13 12 12 13 15 15 16 16 16 16
6 7 8 9 8 8 9 9 9 9 9 9 9 9 9 9 10 11 11 12 12 12 11 11 12 12 13 14 14 14 15 15 13 13 12 12 12 14 15 15 15 16 16
6 7 8 8 8 9 9 9 9 8 8 9 8 8 8 9 10 10 11 11 11 12 11 12 13 13 13 14 13 13 14 14 13 12 11 11 13 13 13 14 15 16 16
7 7 8 8 8 9 9 9 8 9 8 8 8 8 8 9 9 10 10 11 11 11 12 13 13 13 13 13 13 13 13 12 11 11 10 11 13 14 14 14 14 15 15
7 7 6 7 7 7 8 8 8 8 8 8 8 8 9 9 9 9 10 11 11 11 11 12 12 12 13 13 12 13 12 12 11 10 9 10 12 13 13 13 13 14 14
6 5 5 5 6 6 6 7 7 7 7 7 8 9 9 9 9 9 9 10 10 11 11 11 11 12 12 12 12 12 12 11 11 10 9 10 11 13 13 13 12 13 13
4 3 4 4 5 5 5 6 6 7 7 7 7 8 9 9 8 8 9 10 10 10 11 11 11 11 11 11 11 11 11 9 9 8 9 10 10 11 12 12 11 11 11
4 3 3 3 4 5 4 5 5 6 6 7 7 8 8 9 8 8 9 9 9 9 10 10 10 10 10 9 10 10 9 9 8 7 8 10 10 10 11 11 11 11 10
4 3 2 3 4 4 4 4 4 5 6 6 7 8 8 8 7 7 7 8 8 8 8 9 9 9 9 8 8 8 8 8 8 7 8 9 10 10 10 10 10 10 10
4 3 2 3 3 4 5 4 4 4 4 5 6 8 8 6 5 5 5 6 6 6 7 7 7 8 8 8 8 8 8 8 8 7 7 8 9 9 9 8 9 9 9
4 3 2 2 3 3 4 4 4 4 4 4 5 7 8 6 5 5 5 5 5 5 6 6 6 7 7 7 7 7 6 7 7 7 6 8 8 8 8 8 8 8 8
4 3 3 3 3 3 3 3 3 4 4 5 4 6 8 7 6 5 5 4 4 4 5 6 6 6 5 5 5 5 6 5 6 6 6 6 7 8 8 8 8 8 8
4 3 3 4 3 3 3 3 3 4 5 4 4 6 7 7 7 6 5 4 4 5 6 6 6 6 5 5 4 4 4 5 5 5 5 5 6 7 8 7 8 7 8
4 4 4 3 3 3 3 3 3 4 4 4 4 5 7 7 7 6 5 4 4 5 6 5 4 3 3 3 2 2 3 4 4 5 5 5 5 6 7 7 6 6 6
5 4 4 3 4 4 3 3 3 4 3 3 4 4 5 7 8 6 5 4 5 5 4 4 3 3 3 2 2 1 2 2 2 4 4 4 5 5 5 6 6 5 5
4 4 4 3 3 3 3 2 2 2 2 3 3 3 5 6 7 7 5 5 5 4 3 3 3 3 3 3 2 2 1 1 1 2 3 4 4 4 5 5 5 4 4
3 4 4 4 3 3 3 3 3 3 2 2 2 3 5 5 6 6 5 5 5 4 4 4 3 3 2 2 2 2 2 2 1 0 2 2 2 3 5 5 5 5 4
4 4 4 4 4 3 3 3 3 3 3 2 2 2 4 5 5 6 6 5 5 3 4 4 4 3 2 2 2 2 0 1 2 1 1 1 2 2 3 5 5 5 5
5 5 5 4 4 4 3 2 2 2 1 1 1 1 2 4 5 6 6 6 5 5 5 5 5 4 4 2 1 3 3 3 1 2 2 1 1 1 2 3 4 5 6
5 4 4 5 4 4 4 4 4 3 3 3 3 3 2 4 4 5 7 6 6 5 5 5 4 3 5 4 1 0 1 2 2 1 2 2 2 2 2 3 4 5 5
4 4 4 3 3 3 4 5 5 4 3 2 3 3 3 3 4 4 6 6 5 4 5 5 4 4 4 4 3 1 1 1 1 2 3 2 2 3 3 3 4 5 6
2 2 2 3 2 2 3 4 5 4 4 4 4 4 3 3 2 3 4 5 6 5 5 5 5 5 4 4 3 2 2 2 2 2 2 3 3 3 3 3 4 5 6
Wind_Direction
170 154 142 121 111 104 101 97 94 98 95 91 86 83 83 82 79 77 77 78 76 79 84 87 86 84 85 85 85 87 88 87 86 86 86 86 88 87 86 85 85 84 87
149 150 139 126 115 108 102 98 96 98 98 94 90 86 85 84 81 79 79 80 81 81 83 86 87 87 87 87 87 86 86 86 88 86 85 86 88 89 88 88 87 89 88
121 131 130 123 120 113 108 103 100 101 102 98 94 91 88 84 83 84 84 82 83 84 85 87 87 88 89 89 88 87 86 85 88 87 85 86 90 92 91 91 91 90 89
121 125 124 114 118 116 112 108 104 101 102 101 97 94 90 87 84 84 87 85 85 86 88 90 89 89 89 90 89 87 87 87 87 86 85 87 93 96 95 94 94 93 91
112 120 124 119 115 118 115 112 109 105 102 102 100 98 95 91 88 85 85 87 86 85 88 94 94 91 92 93 91 89 86 87 87 84 85 87 93 97 97 95 96 95 93
103 116 126 123 117 114 117 113 112 107 102 104 104 102 100 97 92 89 87 85 84 84 90 100 100 96 95 95 92 89 89 89 87 85 86 91 95 99 98 97 97 97 95
106 111 121 123 119 115 110 113 112 110 105 104 105 103 103 102 99 94 91 87 86 82 90 102 102 100 99 96 92 91 92 88 88 88 86 94 99 101 99 99 97 98 97
113 111 117 118 117 114 111 105 110 110 106 104 106 105 104 104 102 99 97 92 88 84 85 95 98 99 99 96 94 95 92 89 91 94 92 97 105 103 100 99 98 97 98
108 105 106 116 113 110 111 113 107 111 109 106 106 105 104 101 102 102 100 97 94 89 87 90 93 96 95 92 92 92 89 86 86 92 96 101 107 108 103 100 98 99 101
100 97 100 107 109 108 112 115 111 106 113 112 110 108 107 104 104 103 102 102 99 96 92 93 93 94 93 91 91 91 88 86 88 91 98 107 109 109 108 105 102 102 100
108 106 98 99 101 105 112 115 109 105 109 112 111 110 105 103 104 104 100 102 102 99 96 95 95 93 92 90 90 88 85 87 90 92 103 113 112 110 109 109 108 106 105
152 145 118 105 104 106 112 114 111 109 104 110 112 109 104 103 102 103 107 104 102 100 99 95 92 91 88 87 86 84 87 89 88 91 106 117 116 114 112 110 109 109 110
165 154 134 121 120 113 112 115 110 110 103 104 115 115 112 107 104 101 101 103 103 101 96 92 87 89 92 90 86 86 89 90 91 95 107 118 119 118 117 115 115 113 111
154 159 147 127 124 125 126 123 117 113 110 107 122 124 119 114 109 107 104 102 101 103 99 93 93 96 97 96 95 92 90 95 98 97 107 116 123 123 124 124 122 120 121
162 166 161 140 140 136 128 130 123 126 128 125 126 131 130 127 129 126 120 114 107 111 112 109 105 100 98 96 96 97 93 98 105 107 108 118 122 129 134 133 127 126 125
181 181 174 163 158 140 134 132 137 135 135 131 129 135 135 135 139 137 130 124 122 125 121 121 115 109 106 102 93 93 94 94 104 108 111 117 125 131 136 139 135 132 129
193 185 180 175 158 150 145 143 139 140 140 142 141 145 140 138 139 140 140 139 135 129 120 114 107 102 102 97 87 87 94 97 102 104 108 109 122 136 138 139 140 136 136
188 187 187 173 166 165 155 148 139 143 140 144 143 146 144 142 141 138 141 146 140 131 127 126 115 100 93 92 86 80 98 101 104 111 112 111 116 125 136 139 140 144 143
191 187 184 173 173 176 165 151 137 138 139 144 146 147 151 147 146 143 145 143 141 133 131 136 125 123 117 100 90 70 78 98 109 117 117 120 127 133 137 142 143 148 155
182 178 176 174 173 169 160 147 135 129 127 136 150 149 156 154 151 146 144 139 138 136 134 136 133 122 131 130 100 61 30 39 102 140 142 135 139 150 149 147 147 157 167
177 175 174 171 172 159 167 175 174 184 180 160 159 151 161 161 157 149 149 149 148 149 150 144 137 132 129 128 100 54 11 6 350 245 149 147 148 165 162 161 162 164 172
192 190 183 183 179 178 187 192 188 181 187 170 154 155 161 159 161 161 157 160 159 153 143 140 138 148 155 152 130 125 77 321 329 321 302 188 187 175 174 176 169 173 181
201 202 198 192 183 185 177 155 135 121 125 153 168 190 189 165 164 166 164 163 165 160 165 164 159 157 172 194 167 152 162 208 269 293 292 270 236 196 194 182 183 187 194
211 205 198 192 185 181 171 170 166 172 187 194 193 197 204 183 169 177 169 168 171 170 174 178 171 168 169 182 208 280 217 163 172 231 289 290 289 267 241 212 198 201 203
204 195 193 185 182 179 178 180 181 184 192 176 169 184 196 192 181 180 177 175 176 179 182 183 178 175 174 183 189 187 136 37 176 181 234 264 283 267 256 236 214 210 214
188 183 175 174 180 179 182 185 191 193 189 173 178 191 200 202 197 188 184 186 188 189 191 194 191 186 191 188 188 183 181 182 195 189 213 233 252 264 272 245 226 218 218
Height
1537 1539 1540 1540 1541 1541 1541 1541 1542 1542 1542 1542 1542 1542 1542 1541 1541 1540 1539 1538 1537 1535 1534 1536 1537 1538 1539 1539 1540 1540 1541 1541 1542 1543 1543 1544 1544 1545 1545 1545 1545 1546 1546
1536 1538 1539 1540 1541 1541 1542 1542 1542 1542 1542 1543 1543 1543 1542 1542 1542 1541 1540 1540 1539 1538 1538 1538 1539 1540 1541 1541 1541 1542 1542 1543 1544 1545 1545 1546 1546 1547 1547 1547 1548 1548 1548
1536 1537 1539 1540 1541 1541 1542 1542 1542 1542 1542 1543 1543 1543 1543 1543 1542 1542 1541 1541 1540 1540 1540 1540 1541 1542 1542 1543 1543 1544 1544 1545 1546 1546 1547 1548 1548 1549 1549 1549 1550 1550 1550
1536 1537 1538 1539 1540 1541 1542 1542 1543 1543 1543 1543 1544 1543 1544 1543 1543 1543 1542 1542 1542 1541 1541 1541 1542 1543 1543 1544 1545 1545 1546 1547 1547 1548 1549 1549 1550 1550 1551 1551 1552 1552 1552
1536 1537 1538 1539 1540 1541 1542 1542 1542 1543 1543 1543 1544 1544 1544 1544 1544 1543 1543 1543 1542 1541 1540 1540 1542 1543 1544 1545 1546 1547 1547 1548 1549 1549 1550 1551 1551 1552 1552 1553 1553 1554 1554
1535 1536 1537 1538 1539 1540 1541 1542 1542 1543 1543 1543 1544 1544 1544 1544 1544 1544 1544 1543 1542 1540 1537 1538 1540 1543 1544 1545 1546 1548 1548 1549 1550 1551 1551 1552 1553 1553 1554 1554 1555 1555 1555
1534 1536 1537 1538 1539 1540 1541 1542 1542 1542 1543 1543 1544 1544 1544 1544 1544 1544 1544 1543 1542 1540 1537 1537 1540 1543 1545 1546 1547 1548 1549 1550 1551 1552 1553 1553 1554 1555 1555 1556 1556 1557 1557
1534 1535 1536 1538 1539 1539 1540 1541 1542 1542 1542 1543 1543 1544 1544 1544 1544 1544 1544 1544 1543 1542 1540 1540 1542 1544 1546 1547 1548 1549 1550 1551 1552 1553 1553 1554 1555 1556 1556 1557 1557 1558 1558
1533 1534 1535 1537 1538 1539 1539 1540 1540 1541 1542 1542 1543 1543 1544 1544 1544 1544 1544 1544 1544 1543 1543 1543 1544 1545 1547 1548 1549 1550 1550 1551 1552 1553 1554 1555 1556 1556 1557 1557 1558 1558 1559
1532 1533 1534 1536 1537 1538 1538 1539 1540 1540 1541 1542 1542 1543 1543 1543 1544 1544 1544 1544 1544 1544 1544 1545 1546 1546 1547 1548 1549 1550 1551 1552 1553 1553 1554 1555 1556 1557 1557 1558 1559 1559 1559
1531 1532 1533 1534 1536 1536 1537 1538 1538 1539 1540 1540 1541 1542 1542 1543 1543 1543 1543 1544 1544 1544 1545 1546 1546 1547 1548 1549 1550 1551 1551 1552 1553 1554 1554 1555 1556 1557 1557 1558 1559 1559 1560
1528 1530 1532 1533 1534 1535 1536 1536 1537 1537 1538 1539 1540 1540 1541 1541 1542 1542 1543 1543 1544 1544 1545 1546 1546 1547 1548 1549 1549 1550 1551 1552 1553 1553 1554 1555 1556 1556 1557 1558 1559 1559 1560
1527 1528 1530 1531 1532 1533 1534 1535 1535 1536 1536 1537 1538 1539 1540 1540 1541 1541 1542 1542 1543 1543 1544 1545 1546 1546 1547 1548 1549 1550 1550 1551 1552 1553 1554 1555 1556 1556 1557 1558 1558 1559 1560
1525 1527 1528 1529 1531 1532 1532 1533 1533 1534 1535 1535 1536 1537 1538 1538 1539 1540 1541 1541 1542 1542 1543 1544 1545 1545 1547 1548 1548 1549 1550 1550 1551 1552 1553 1554 1555 1556 1556 1557 1558 1558 1559
1523 1525 1526 1528 1529 1530 1530 1531 1532 1532 1533 1533 1534 1534 1535 1536 1537 1538 1539 1540 1541 1541 1542 1543 1544 1544 1545 1547 1547 1548 1549 1550 1551 1551 1552 1553 1554 1555 1555 1556 1557 1557 1558
1521 1522 1524 1525 1526 1527 1528 1529 1529 1530 1531 1531 1532 1532 1533 1535 1535 1537 1538 1538 1539 1540 1541 1542 1542 1543 1544 1545 1546 1547 1547 1548 1549 1550 1551 1552 1553 1553 1554 1555 1556 1556 1557
1519 1520 1521 1522 1523 1524 1525 1526 1527 1527 1528 1529 1530 1530 1531 1532 1533 1534 1536 1537 1538 1539 1539 1540 1541 1542 1542 1543 1544 1545 1546 1547 1548 1549 1550 1550 1551 1552 1553 1554 1555 1555 1556
1516 1517 1518 1519 1520 1522 1523 1523 1524 1525 1526 1526 1527 1528 1528 1530 1531 1532 1533 1535 1536 1537 1538 1538 1539 1540 1540 1541 1542 1543 1544 1545 1546 1547 1548 1549 1550 1551 1552 1553 1553 1554 1554
1512 1513 1515 1516 1517 1519 1520 1521 1521 1522 1523 1523 1524 1525 1526 1527 1529 1530 1531 1532 1534 1534 1535 1536 1537 1538 1538 1539 1540 1541 1542 1543 1544 1545 1546 1547 1548 1549 1550 1551 1551 1552 1553
1509 1510 1511 1513 1514 1515 1517 1518 1518 1519 1520 1520 1521 1522 1523 1524 1525 1527 1528 1530 1531 1532 1533 1534 1534 1535 1536 1537 1538 1539 1540 1541 1542 1543 1544 1545 1546 1546 1547 1548 1549 1550 1551
1505 1506 1507 1509 1510 1512 1513 1514 1514 1515 1516 1517 1518 1519 1520 1521 1522 1524 1525 1527 1528 1529 1530 1531 1532 1533 1533 1535 1536 1537 1538 1539 1539 1540 1541 1542 1543 1544 1545 1546 1546 1547 1548
1501 1502 1504 1505 1507 1508 1509 1510 1511 1512 1513 1514 1515 1516 1516 1518 1519 1520 1522 1523 1525 1526 1527 1528 1529 1530 1531 1532 1533 1534 1535 1537 1536 1537 1538 1539 1540 1541 1542 1543 1543 1544 1545
1497 1499 1500 1502 1503 1505 1505 1506 1508 1509 1509 1510 1511 1512 1513 1514 1515 1517 1518 1520 1521 1523 1523 1524 1526 1527 1527 1529 1530 1532 1532 1532 1533 1534 1534 1536 1537 1538 1539 1540 1540 1541 1542
1494 1496 1497 1498 1500 1501 1502 1503 1503 1504 1505 1506 1508 1509 1510 1511 1511 1513 1514 1516 1518 1519 1520 1521 1522 1523 1524 1525 1526 1528 1530 1530 1530 1530 1531 1532 1533 1534 1535 1536 1537 1537 1538
1490 1492 1493 1495 1496 1497 1498 1499 1500 1501 1502 1504 1505 1506 1506 1507 1508 1509 1511 1512 1514 1515 1516 1517 1518 1520 1521 1521 1522 1523 1525 1526 1527 1527 1526 1528 1529 1530 1530 1532 1533 1533 1534
1487 1488 1490 1491 1492 1493 1494 1495 1496 1498 1498 1499 1500 1502 1502 1503 1504 1505 1507 1508 1510 1511 1512 1513 1515 1516 1517 1518 1519 1519 1520 1521 1522 1523 1523 1523 1524 1525 1526 1527 1528 1529 1530